Santa Fe, NM

6:46 PM MST on December 05, 2016 (GMT -0700)
Santa Fe Municipal

Weather History for KSAF - April, 2014

Change the Weather History Date:

Sunday, April 6, 2014

  Actual Average Record
Temperature  
Mean Temperature 40 °F -  
Max Temperature 54 °F 0 °F 72 °F (2013)
Min Temperature 26 °F - 21 °F (2009)
Degree Days  
Heating Degree Days 26    
Moisture  
Dew Point 27 °F    
Average Humidity 64    
Maximum Humidity 96    
Minimum Humidity 32    
Precipitation  
Precipitation 0.00 in - - ()
Sea Level Pressure  
Sea Level Pressure 29.83 in    
Wind  
Wind Speed 9 mph (North)    
Max Wind Speed 18 mph    
Max Gust Speed 28 mph    
Visibility 10 miles    
Events Rain , Thunderstorm    
Averages and records for this station are not official NWS values.
T = Trace of Precipitation, MM = Missing Value Source: NWS Daily Summary

Daily Weather History Graph

Daily Weather History Graph

Search for Another Location

Airport or City:

Trip Planner

Search our weather history database for the weather conditions in past years. The results will help you decide how hot, cold, wet, or windy it might be!

Date:

Astronomy

Apr. 06, 2014 Rise Set
Actual Time 6:43 AM MDT 7:30 PM MDT
Civil Twilight 6:17 AM MDT 7:56 PM MDT
Nautical Twilight 5:47 AM MDT 8:26 PM MDT
Astronomical Twilight 5:16 AM MDT 8:58 PM MDT
Moon 11:53 AM MDT 1:21 AM MDT
Length of Visible Light 13h 38m
Length of Day
12h 46m
Waxing Crescent, 44% of the Moon is Illuminated
Apr 6
Waxing Crescent
Apr 7
First Quarter
Apr 15
Full
Apr 22
Last Quarter
Apr 29
New

Hourly Weather History & Observations

Time (MDT) Temp. Windchill Dew Point Humidity Pressure Visibility Wind Dir Wind Speed Gust Speed Precip Events Conditions
12:53 AM 33.1 °F 28.7 °F 27.0 °F 78% 29.80 in 10.0 mi North 4.6 mph - N/A   Clear
1:53 AM 30.0 °F 22.4 °F 27.0 °F 88% 29.83 in 10.0 mi North 8.1 mph - N/A   Mostly Cloudy
2:53 AM 27.0 °F 20.5 °F 25.0 °F 92% 29.83 in 10.0 mi North 5.8 mph - N/A   Clear
3:53 AM 26.1 °F 17.6 °F 24.1 °F 92% 29.83 in 10.0 mi NNE 8.1 mph - N/A   Clear
4:53 AM 28.9 °F 19.8 °F 26.1 °F 89% 29.83 in 10.0 mi North 10.4 mph - N/A   Clear
5:53 AM 28.0 °F 19.3 °F 27.0 °F 96% 29.84 in 4.0 mi North 9.2 mph - N/A   Clear
6:53 AM 28.0 °F 21.7 °F 26.1 °F 92% 29.86 in 10.0 mi North 5.8 mph - N/A   Clear
7:53 AM 35.1 °F 29.3 °F 28.9 °F 78% 29.85 in 10.0 mi NNW 6.9 mph - N/A   Scattered Clouds
8:53 AM 37.9 °F 33.5 °F 30.0 °F 73% 29.86 in 10.0 mi Variable 5.8 mph - N/A   Overcast
9:53 AM 44.1 °F 37.4 °F 30.0 °F 58% 29.84 in 10.0 mi North 13.8 mph - N/A   Partly Cloudy
10:53 AM 48.9 °F - 28.0 °F 44% 29.82 in 10.0 mi NW 13.8 mph 18.4 mph N/A   Clear
11:53 AM 51.1 °F - 24.1 °F 35% 29.82 in 10.0 mi North - - N/A   Mostly Cloudy
12:53 PM 48.9 °F - 24.1 °F 38% 29.80 in 10.0 mi WSW 10.4 mph - N/A   Overcast
1:53 PM 48.0 °F - 27.0 °F 44% 29.81 in 10.0 mi West 10.4 mph - 0.00 in   Mostly Cloudy
2:53 PM 50.0 °F - 23.0 °F 35% 29.78 in 10.0 mi NNE 11.5 mph - N/A   Mostly Cloudy
3:53 PM 51.1 °F - 21.9 °F 32% 29.77 in 10.0 mi North 11.5 mph 18.4 mph N/A   Overcast
4:43 PM 52.0 °F - 25.0 °F 35% 29.86 in 10.0 mi NNE 9.2 mph 20.7 mph 0.00 in Rain , Thunderstorm Light Rain
4:53 PM 53.1 °F - 26.1 °F 35% 29.77 in 10.0 mi NNE 18.4 mph 26.5 mph 0.00 in Rain Light Rain
5:53 PM 48.9 °F - 25.0 °F 39% 29.79 in 10.0 mi North 17.3 mph 27.6 mph 0.00 in   Mostly Cloudy
6:53 PM 44.1 °F 37.4 °F 30.9 °F 60% 29.84 in 10.0 mi North 13.8 mph - N/A   Mostly Cloudy
7:53 PM 41.0 °F 33.9 °F 33.1 °F 73% 29.84 in 10.0 mi NNW 12.7 mph - N/A   Scattered Clouds
8:53 PM 41.0 °F 32.8 °F 30.9 °F 67% 29.86 in 10.0 mi North 16.1 mph 26.5 mph N/A   Overcast
9:53 PM 37.9 °F 30.9 °F 30.0 °F 73% 29.87 in 10.0 mi North 10.4 mph - N/A   Mostly Cloudy
10:53 PM 37.0 °F 28.9 °F 30.9 °F 79% 29.87 in 10.0 mi North 12.7 mph - N/A   Overcast
11:53 PM 35.1 °F 29.3 °F 30.9 °F 85% 29.88 in 10.0 mi North 6.9 mph - N/A   Partly Cloudy